STARLINK-35768 (66832 NORAD) Tracking and Keplerian Element Data

This shows tracking and keplerian element data for the satellite.

Feedback or suggestion? Click here.




ElementValue
Catalog66832
NameSTARLINK-35768
Epoch Orbit410
Epoch Day354.25003472
Epoch Year2025
RAAN177.8218
Inclination69.9996
Eccentricity0.0003099
Argument of Perigee266.858
Mean Anonmoly324.765
Mean Motion15.52487395
Decay Rate0.0003461
L11 66832U 25280M 25354.25003472 .00034610 00000+0 56349-3 0 9997
L22 66832 69.9996 177.8218 0003099 266.8580 324.7650 15.52487395 4106



Live tracking and technical data element details for STARLINK-35768 (NORAD 66832). STARLINK-35768 can be tracked NOW for your location showing map with azimuth and elevation plus other details from your city location.







IsCatalogInMostPopularTable: catalog: 66832, numindb: 10
Update: records affected: 1



GetName: 66832 STARLINK-35768

Hit Count: updated at: Sun, 08 Feb 2026 08:40:17 GMT